Regional Weather Roundup
Issued by NWS Columbia, SC

Current Version | Previous Version | Graphics & Text | Print | Product List | Glossary On
Versions: 1 2 3 4 5 6 7 8 9 10 11 12 13 14 15 16 17 18 19 20 21 22 23 24 25 26 27 28 29 30 31 32 33 34 35 36 37 38 39 40 41 42 43 44 45 46 47 48 49 50
000
ASUS42 KCAE 140710
RWRCAE
REGIONAL WEATHER ROUNDUP
NATIONAL WEATHER SERVICE COLUMBIA SC
200 AM EST THU NOV 14 2019

NOTE: "FAIR" INDICATES FEW OR NO CLOUDS BELOW 12,000 FEET WITH NO
SIGNIFICANT WEATHER AND/OR OBSTRUCTIONS TO VISIBILITY.

NOT ALL STATIONS ARE QUALITY CONTROLLED BY THE NATIONAL
WEATHER SERVICE. USE DATA WITH CAUTION...ESPECIALLY
DEWPOINT OBSERVATIONS.

SCZ001>056-GAZ040-063>065-077-140800-
...UPSTATE SOUTH CAROLINA...

CITY           SKY/WX    TMP DP  RH WIND       PRES   REMARKS
ANDERSON       FAIR      30  20  66 NE3       30.35F
LIBERTY        FAIR      24  24 100 NE3       30.35F
SPARTANBURG    FAIR      30  21  69 CALM      30.36F
CLEMSON        FAIR      29  19  66 N3        30.37S
GREENVILLE     FAIR      30  20  66 N7        30.35F WCI  23
GREENWOOD      MOCLDY    29  24  82 N5        30.36F WCI  24
GREER          FAIR      28  19  69 N3        30.36F
ROCK HILL      FAIR      26  21  81 CALM      30.38F
CHESTER        FAIR      28  19  69 N3        30.38F
LAURENS        FAIR      28  23  80 N5        30.35F WCI  23


...CENTRAL SOUTH CAROLINA...

CITY           SKY/WX    TMP DP  RH WIND       PRES   REMARKS
COLUMBIA APT   MOCLDY    33  22  63 NE5       30.35F WCI  29
COLUMBIA OWENS MOCLDY    33  21  61 VRB3      30.37F
MCENTIRE ANGB  FAIR      33  20  59 NE5       30.35F WCI  28
ORANGEBURG     FAIR      34  21  59 NE6       30.33F WCI  29
SUMTER SHAW    FAIR      32  21  63 NE9       30.35S WCI  24
NEWBERRY       FAIR      30  25  80 NE6       30.39R WCI  24
AIKEN          CLOUDY    32  23  69 NE6       30.36F WCI  26
BARNWELL       CLOUDY    37  21  52 NE8       30.33F WCI  31
MANNING        FAIR      32  21  64 NE3       30.34F
CAMDEN         CLOUDY    30  19  64 NE6       30.37F WCI  24
LANCASTER      PTSUNNY   27  21  80 NE3       30.37F
WINNSBORO      FAIR      32  23  69 NE8       30.34F WCI  25


...EASTERN AND COASTAL SOUTH CAROLINA...

CITY           SKY/WX    TMP DP  RH WIND       PRES   REMARKS
MYRTLE BEACH   MOCLDY    35  23  61 N13       30.35F WCI  26
N MYRTLE BCH   FAIR      33  25  72 NE10      30.35F WCI  25
CONWAY         FAIR      32  23  69 NE10      30.35F WCI  24
MARION         FAIR      30  21  69 NE7       30.38F WCI  23
HARTSVILLE     CLOUDY    30  18  59 NE8       30.38S WCI  23
FLORENCE       FAIR      30  20  66 NE8       30.36F WCI  22
DARLINGTON     FAIR      27  24  89 N9        30.39F WCI  18
CHARLESTON APT FAIR      36  24  62 NE9       30.31S WCI  29
MOUNT PLEASANT CLOUDY    36  27  69 VRB5G12   30.31R WCI  32
WALTERBORO     FAIR      36  23  60 N6        30.32F WCI  31
BEAUFORT       FAIR      40  29  64 N13       30.29F WCI  32
HILTON HEAD    CLOUDY    41  30  65 N17       30.28F


...EASTERN GEORGIA...

CITY           SKY/WX    TMP DP  RH WIND       PRES   REMARKS
AUGUSTA BUSH F CLOUDY    39  25  57 NE7       30.33F WCI  34
AUGUSTA DANIEL CLOUDY    39  19  44 NE12      30.33F WCI  32
THOMSON        CLOUDY    34  24  67 E5        30.33F WCI  29
CLAXTON        FAIR      42  28  56 NE6       30.28F
SYLVANIA       FAIR      39  25  57 NE7       30.31S WCI  34
STATESBORO     FAIR      38  25  58 NE5       30.29S WCI  35
SAVANNAH       FAIR      40  27  59 NE9       30.28F WCI  34


...SOUTHERN NORTH CAROLINA...

CITY           SKY/WX    TMP DP  RH WIND       PRES   REMARKS
CHARLOTTE      MOCLDY    31  17  56 E5        30.38F WCI  26
MONROE         FAIR      26  20  77 NE6       30.37F WCI  19
WADESBORO        N/A     23  20  89 MISG      30.41F
ROCKINGHAM     FAIR      27  17  66 N3        30.39F
RUTHERFORDTON  FAIR      23  21  93 CALM      30.38S
ASHEVILLE      FAIR      24  16  71 CALM      30.31S

$$



USA.gov is the U.S. government's official web portal to all federal, state and local government web resources and services.